Simultaneous Nadir Overpasses (SNOs) Predictions

Prediction of SNOs between AQUA and NOAA-19 Satellite Orbit:

Table of predicted SNOs for the next 14.0 days since TLE Epoch: 2/3/2024
Index Date (AQUA) Time (AQUA) Lat,Lon (AQUA) SZA (AQUA ) Date (NOAA-19) Time (NOAA-19) Lat,Lon (NOAA-19) SZA (NOAA-19 ) Distance(km) Time Diff (sec)
1 02/03/2024 05:56:22 -75.89, -94.07 87.39 02/03/2024 05:55:26 -75.90, -94.07 87.37 0.84 56
2 02/03/2024 06:45:47 75.94, 73.45 92.65 02/03/2024 06:46:20 75.97, 73.45 92.69 3.94 33
3 02/05/2024 10:36:57 -75.92,-164.26 88.01 02/05/2024 10:36:35 -75.94,-164.18 87.99 2.90 22
4 02/05/2024 11:26:22 75.96, 3.25 92.03 02/05/2024 11:27:30 75.98, 3.26 92.04 1.97 68
5 02/07/2024 14:28:01 75.54, -40.90 90.92 02/07/2024 14:26:53 75.47, -43.23 90.95 65.58 68
6 02/07/2024 15:17:31 -75.93, 125.59 88.67 02/07/2024 15:17:45 -75.92, 125.53 88.68 2.16 14
7 02/09/2024 19:08:41 75.89,-112.04 90.60 02/09/2024 19:07:54 75.88,-112.08 90.60 1.62 47
8 02/09/2024 19:58:04 -75.93, 55.49 89.37 02/09/2024 19:58:54 -75.94, 55.38 89.36 3.23 50
9 02/11/2024 23:49:14 75.93, 177.75 89.93 02/11/2024 23:49:03 75.92, 177.82 89.92 2.28 11
10 02/12/2024 00:38:47 -76.45, -16.29 89.51 02/12/2024 00:39:52 -76.44, -12.98 89.63 86.17 65
11 02/14/2024 03:40:21 -75.89, -59.89 90.84 02/14/2024 03:39:16 -75.85, -59.89 90.86 4.04 65
12 02/14/2024 04:29:46 75.95, 107.57 89.22 02/14/2024 04:30:12 75.95, 107.70 89.21 3.56 26
13 02/16/2024 08:20:52 -75.90,-130.01 91.58 02/16/2024 08:20:24 -75.90,-129.96 91.58 1.35 28



Historial Predications of SNOs between AQUA and NOAA-19
